一网星座-0193星 (ONEWEB-0193 )

导读 | 豆包AI

ONEWEB-0193是英国OneWeb项目下的低轨通信卫星,于2021年4月25日发射入轨,属于OneWeb一期全球宽带卫星星座组网卫星,运行在近地轨道。卫星重约147.5公斤,配备Ku/Ka波段天线,单星通信能力约7.5Gbps,设计寿命5年,为全球偏远地区、移动场景提供高速宽带互联网接入服务,是OneWeb实现全球覆盖的重要组成部分。

Basic Information
目录编号:
48238
目录名称:
ONEWEB-0193
国际标识:
2021-031AE
轨道中心:
EARTH
卫星名称:
一网星座-0193星
卫星全名:
一网星座-0193星 (ONEWEB-0193 )
卫星状态:
在轨 (已飞行1784 天)
发射日期:
2021-04-25 UTC
国别 :
英国 (GB)
星等 :
--
Orbit Information
数据来源 国际轨道数据 AOE轨道数据
星历时间 2026-03-13T22:49:43+0800
19小时前
查看轨道信息
2026-03-14T09:00:00+0800
9小时前
查看轨道信息
半长轴 7583.927km 7583.914km
偏心率 0.0001465 0.0001519
轨道倾角 87.898° 87.899°
近地点辐角 97.334° 105.152°
升交点赤经 308.771° 308.686°
平近点角 262.796° 99.365°
近地点 1204.678km 1204.625km
远地点 1206.902km 1206.929km
周期 109.547分钟 109.547分钟
每日圈数 13.145031 13.145065
Detailed Information
平衡模式:
三轴稳定
覆盖范围:
全球
运营商:
一网卫星公司
运营商所在国:
英国
制造商(研发单位):
一网卫星公司
制造商所在国:
英国
使用方式:
暂无
Satellite Introduction
OneWeb卫星网络由648颗重约125公斤的微型卫星组成,运行在1200公里的轨道上。 每颗卫星都能够提供至少每秒8千兆位的吞吐量,以使用其高吞吐量的Ku频段有效载荷为家庭和移动平台提供互联网接入。该卫星仍在工作。
2D Orbit Map
3D Orbit Map
Orbit Altitude Analysis Chart
Orbit Inclination Analysis Chart
Orbit Comprehensive Analysis Chart
View Comprehensive Chart